�������l�o���
Date,Time,MP-1(��Sv/h),MP-2(��Sv/h),MP-3(��Sv/h),MP-4(��Sv/h),MP-5(��Sv/h),MP-6(��Sv/h),MP-7(��Sv/h),MP-8(��Sv/h),����,����(m/s),���J
2022/11/17,00:00,0.584,0.847,0.533,1.077,0.746,0.338,0.600,0.563,���k��,9.3,��
2022/11/17,00:10,0.584,0.848,0.533,1.077,0.747,0.337,0.600,0.563,���k��,9.5,��
2022/11/17,00:20,0.584,0.846,0.529,1.078,0.744,0.338,0.598,0.564,���k��,9.6,��
2022/11/17,00:30,0.583,0.845,0.532,1.077,0.745,0.337,0.597,0.562,���k��,7.7,��
2022/11/17,00:40,0.586,0.845,0.532,1.078,0.745,0.337,0.598,0.562,�k��,6.6,��
2022/11/17,00:50,0.584,0.846,0.532,1.076,0.745,0.338,0.598,0.564,�k��,8.6,��
2022/11/17,01:00,0.584,0.846,0.533,1.075,0.747,0.338,0.598,0.564,���k��,8.5,��
2022/11/17,01:10,0.584,0.846,0.532,1.077,0.747,0.338,0.599,0.562,���k��,7.3,��
2022/11/17,01:20,0.583,0.845,0.531,1.075,0.746,0.339,0.597,0.562,���k��,7.5,��
2022/11/17,01:30,0.585,0.845,0.531,1.078,0.746,0.337,0.600,0.563,���k��,9.3,��
2022/11/17,01:40,0.583,0.846,0.531,1.077,0.746,0.338,0.599,0.565,���k��,10.2,��
2022/11/17,01:50,0.583,0.846,0.530,1.076,0.746,0.337,0.599,0.562,���k��,11.8,��
2022/11/17,02:00,0.585,0.846,0.531,1.076,0.746,0.338,0.599,0.563,���k��,10.3,��
2022/11/17,02:10,0.583,0.847,0.533,1.077,0.747,0.338,0.600,0.564,���k��,11.7,��
2022/11/17,02:20,0.584,0.847,0.532,1.074,0.746,0.337,0.599,0.563,���k��,8.9,��
2022/11/17,02:30,0.585,0.847,0.530,1.075,0.746,0.338,0.599,0.563,���k��,7.8,��
2022/11/17,02:40,0.583,0.848,0.531,1.075,0.747,0.338,0.600,0.564,���k��,8.5,��
2022/11/17,02:50,0.585,0.845,0.535,1.075,0.747,0.337,0.600,0.563,���k��,10.4,��
2022/11/17,03:00,0.583,0.845,0.532,1.076,0.746,0.335,0.597,0.562,���k��,10.8,��
2022/11/17,03:10,0.585,0.845,0.531,1.077,0.746,0.337,0.598,0.563,���k��,9.2,��
2022/11/17,03:20,0.584,0.847,0.533,1.076,0.747,0.337,0.599,0.564,���k��,8.4,��
2022/11/17,03:30,0.585,0.846,0.532,1.076,0.744,0.338,0.598,0.563,���k��,9.8,��
2022/11/17,03:40,0.584,0.844,0.532,1.077,0.746,0.337,0.597,0.564,���k��,9.9,��
2022/11/17,03:50,0.584,0.847,0.531,1.075,0.747,0.337,0.597,0.565,���k��,9.3,��
2022/11/17,04:00,0.583,0.846,0.532,1.075,0.745,0.337,0.598,0.564,���k��,7.5,��
2022/11/17,04:10,0.584,0.846,0.531,1.075,0.745,0.338,0.597,0.564,���k��,9.1,��
2022/11/17,04:20,0.586,0.845,0.531,1.076,0.744,0.336,0.598,0.563,���k��,9.2,��
2022/11/17,04:30,0.585,0.846,0.531,1.078,0.746,0.339,0.600,0.563,���k��,8.1,��
2022/11/17,04:40,0.583,0.847,0.533,1.076,0.747,0.338,0.599,0.564,���k��,7.6,��
2022/11/17,04:50,0.584,0.847,0.531,1.074,0.746,0.337,0.599,0.564,���k��,7.9,��
2022/11/17,05:00,0.583,0.847,0.534,1.076,0.746,0.337,0.598,0.565,���k��,10.7,��
2022/11/17,05:10,0.585,0.845,0.532,1.076,0.745,0.336,0.598,0.563,���k��,10.5,��
2022/11/17,05:20,0.585,0.846,0.535,1.076,0.747,0.338,0.599,0.563,���k��,10.6,��
2022/11/17,05:30,0.584,0.844,0.533,1.076,0.747,0.338,0.597,0.564,���k��,9.6,��
2022/11/17,05:40,0.585,0.845,0.532,1.077,0.747,0.337,0.597,0.564,���k��,9.4,��
2022/11/17,05:50,0.585,0.847,0.532,1.076,0.744,0.337,0.596,0.563,���k��,11.3,��
2022/11/17,06:00,0.584,0.846,0.532,1.077,0.746,0.337,0.597,0.563,���k��,9.8,��
2022/11/17,06:10,0.583,0.850,0.532,1.077,0.747,0.337,0.597,0.563,���k��,8.5,��
2022/11/17,06:20,0.585,0.848,0.531,1.079,0.746,0.337,0.597,0.565,���k��,8.8,��
2022/11/17,06:30,0.583,0.844,0.532,1.076,0.747,0.337,0.599,0.564,���k��,8.7,��
2022/11/17,06:40,0.584,0.845,0.532,1.075,0.745,0.338,0.599,0.564,���k��,8.3,��
2022/11/17,06:50,0.585,0.847,0.531,1.075,0.746,0.337,0.598,0.563,�k��,6.2,��
2022/11/17,07:00,0.585,0.846,0.533,1.076,0.743,0.336,0.597,0.563,���k��,5.3,��
2022/11/17,07:10,0.585,0.848,0.532,1.078,0.746,0.337,0.598,0.563,���k��,5.0,��
2022/11/17,07:20,0.585,0.845,0.531,1.078,0.748,0.338,0.598,0.565,���k��,4.9,��
2022/11/17,07:30,0.584,0.846,0.532,1.075,0.747,0.337,0.597,0.564,���k��,4.6,��
2022/11/17,07:40,0.584,0.846,0.532,1.078,0.746,0.336,0.598,0.564,���k��,4.7,��
2022/11/17,07:50,0.584,0.844,0.531,1.080,0.746,0.336,0.599,0.564,���k��,5.5,��
2022/11/17,08:00,0.583,0.846,0.532,1.077,0.747,0.338,0.598,0.565,���k��,5.7,��
2022/11/17,08:10,0.584,0.847,0.531,1.077,0.746,0.338,0.600,0.565,���k��,4.3,��
2022/11/17,08:20,0.585,0.845,0.530,1.078,0.748,0.338,0.598,0.564,���k��,4.3,��
2022/11/17,08:30,0.584,0.846,0.532,1.075,0.744,0.338,0.598,0.562,���k��,3.1,��
2022/11/17,08:40,0.584,0.845,0.532,1.077,0.747,0.336,0.598,0.563,���k��,4.1,��
2022/11/17,08:50,0.585,0.843,0.532,1.077,0.745,0.337,0.597,0.563,��,4.2,��
2022/11/17,09:00,0.586,0.841,0.532,1.078,0.747,0.338,0.597,0.563,���k��,4.1,��
2022/11/17,09:10,0.584,0.843,0.531,1.077,0.746,0.337,0.597,0.565,���k��,4.2,��
2022/11/17,09:20,0.585,0.841,0.531,1.077,0.745,0.337,0.595,0.564,��,4.4,��
2022/11/17,09:30,0.586,0.842,0.533,1.078,0.747,0.338,0.597,0.564,���k��,4.2,��
2022/11/17,09:40,0.585,0.844,0.533,1.079,0.747,0.338,0.595,0.563,���k��,4.5,��
2022/11/17,09:50,0.585,0.842,0.534,1.079,0.747,0.338,0.596,0.565,���k��,5.4,��
2022/11/17,10:00,0.586,0.844,0.532,1.077,0.748,0.337,0.598,0.563,���k��,5.2,��
2022/11/17,10:10,0.587,0.847,0.532,1.078,0.747,0.338,0.595,0.564,���k��,4.5,��
2022/11/17,10:20,0.586,0.844,0.533,1.079,0.746,0.337,0.597,0.564,���k��,5.4,��
2022/11/17,10:30,0.584,0.845,0.533,1.076,0.747,0.337,0.597,0.565,�k��,4.1,��
2022/11/17,10:40,0.586,0.841,0.531,1.078,0.747,0.336,0.598,0.564,���k��,5.6,��
2022/11/17,10:50,0.583,0.845,0.531,1.075,0.747,0.336,0.597,0.564,��,5.3,��
2022/11/17,11:00,0.585,0.845,0.533,1.078,0.749,0.335,0.597,0.564,��,5.3,��
2022/11/17,11:10,0.583,0.845,0.532,1.075,0.746,0.336,0.596,-,��,4.0,��
2022/11/17,11:20,0.584,0.844,0.534,1.079,0.748,0.335,0.596,-,��,4.7,��
2022/11/17,11:30,0.586,0.845,0.532,1.077,0.748,0.337,0.597,-,��,4.3,��
2022/11/17,11:40,0.584,0.845,0.535,1.076,0.748,0.337,0.597,-,���쐼,3.7,��
2022/11/17,11:50,0.582,0.844,0.533,1.078,0.748,0.336,0.596,-,��,2.3,��
2022/11/17,12:00,0.585,0.844,0.534,1.077,0.747,0.337,0.598,-,�k��,3.3,��
2022/11/17,12:10,0.585,0.847,0.535,1.077,0.748,0.339,0.596,-,�k��,3.7,��
2022/11/17,12:20,0.585,0.846,0.534,1.079,0.747,0.338,0.597,-,�k��,3.4,��
2022/11/17,12:30,0.585,0.846,0.534,1.078,0.748,0.337,0.597,-,���k��,4.2,��
2022/11/17,12:40,0.585,0.846,0.532,1.079,0.747,0.337,0.599,-,��,3.7,��
2022/11/17,12:50,0.586,0.848,0.535,1.078,0.747,0.338,0.596,-,���k��,2.6,��
2022/11/17,13:00,0.585,0.844,0.533,1.081,0.747,0.337,0.599,-,���k��,4.4,��
2022/11/17,13:10,0.583,0.846,0.533,1.080,0.747,0.339,0.597,-,���k��,4.6,��
2022/11/17,13:20,0.586,0.847,0.531,1.078,0.749,0.337,0.597,-,���k��,4.4,��
2022/11/17,13:30,0.585,0.847,0.532,1.077,0.747,0.337,0.597,-,�k��,3.7,��
2022/11/17,13:40,0.585,0.846,0.532,1.080,0.748,0.339,0.597,-,�k��,3.3,��
2022/11/17,13:50,0.585,0.846,0.533,1.079,0.748,0.337,0.596,0.562,�k��,3.9,��
2022/11/17,14:00,0.585,0.846,0.533,1.078,0.747,0.337,0.596,0.562,�k��,2.6,��
2022/11/17,14:10,0.586,0.847,0.533,1.079,0.747,0.336,0.598,0.563,���k��,2.5,��
2022/11/17,14:20,0.585,0.847,0.534,1.081,0.749,0.337,0.598,0.563,�k��,3.2,��
2022/11/17,14:30,0.588,0.848,0.535,1.080,0.749,0.338,0.597,0.561,�k��,3.1,��
2022/11/17,14:40,0.586,0.846,0.535,1.077,0.749,0.338,0.597,0.563,�k��,3.1,��
2022/11/17,14:50,0.587,0.850,0.534,1.078,0.750,0.338,0.595,0.565,�k�k��,3.5,��
2022/11/17,15:00,0.587,0.850,0.534,1.080,0.750,0.338,0.597,0.564,�k��,1.7,��
2022/11/17,15:10,0.589,0.850,0.535,1.079,0.748,0.338,0.597,0.563,���k��,3.0,��
2022/11/17,15:20,0.587,0.851,0.535,1.079,0.751,0.338,0.598,0.565,�k��,2.6,��
2022/11/17,15:30,0.586,0.853,0.534,1.080,0.750,0.339,0.599,0.564,�k��,1.7,��
2022/11/17,15:40,0.586,0.851,0.532,1.078,0.749,0.338,0.597,0.564,�k,2.0,��
2022/11/17,15:50,0.586,0.850,0.535,1.079,0.751,0.338,0.597,0.565,�k�k��,3.1,��
2022/11/17,16:00,0.588,0.852,0.534,1.080,0.750,0.337,0.598,0.565,�k�k��,3.1,��
2022/11/17,16:10,0.586,0.850,0.533,1.081,0.748,0.338,0.598,0.564,�k�k��,3.9,��
2022/11/17,16:20,0.588,0.851,0.532,1.080,0.750,0.337,0.596,0.564,�k�k��,4.0,��
2022/11/17,16:30,0.587,0.851,0.533,1.078,0.749,0.340,0.597,0.563,�k�k��,4.5,��
2022/11/17,16:40,0.587,0.852,0.533,1.079,0.748,0.338,0.597,0.564,�k�k��,4.6,��
2022/11/17,16:50,0.586,0.852,0.533,1.080,0.751,0.337,0.598,0.565,�k�k��,4.6,��
2022/11/17,17:00,0.586,0.850,0.532,1.079,0.750,0.339,0.598,0.564,�k��,5.8,��
2022/11/17,17:10,0.587,0.851,0.534,1.080,0.751,0.340,0.598,0.564,�k��,5.0,��
2022/11/17,17:20,0.587,0.852,0.533,1.081,0.750,0.337,0.597,0.564,�k��,5.2,��
2022/11/17,17:30,0.586,0.850,0.533,1.078,0.750,0.339,0.597,0.566,�k��,6.6,��
2022/11/17,17:40,0.586,0.851,0.534,1.078,0.750,0.338,0.598,0.565,�k��,7.0,��
2022/11/17,17:50,0.587,0.850,0.533,1.078,0.751,0.338,0.598,0.564,�k��,5.2,��
2022/11/17,18:00,0.588,0.851,0.533,1.078,0.748,0.338,0.598,0.563,�k�k��,5.4,��
2022/11/17,18:10,0.588,0.854,0.533,1.080,0.750,0.337,0.598,0.564,�k�k��,5.4,��
2022/11/17,18:20,0.585,0.851,0.533,1.081,0.752,0.338,0.597,0.564,�k�k��,5.8,��
2022/11/17,18:30,0.587,0.852,0.534,1.078,0.750,0.338,0.597,0.564,�k�k��,5.0,��
2022/11/17,18:40,0.586,0.851,0.534,1.078,0.751,0.337,0.598,0.564,�k�k��,5.0,��
2022/11/17,18:50,0.588,0.849,0.533,1.078,0.750,0.337,0.598,0.564,�k��,5.0,��
2022/11/17,19:00,0.588,0.851,0.533,1.079,0.751,0.339,0.598,0.563,�k��,4.9,��
2022/11/17,19:10,0.586,0.850,0.534,1.080,0.750,0.338,0.598,0.564,�k��,5.5,��
2022/11/17,19:20,0.587,0.851,0.533,1.080,0.751,0.337,0.599,0.564,�k��,4.5,��
2022/11/17,19:30,0.586,0.852,0.535,1.081,0.750,0.338,0.598,0.563,�k��,5.2,��
2022/11/17,19:40,0.586,0.852,0.534,1.079,0.751,0.337,0.598,0.564,�k��,5.8,��
2022/11/17,19:50,0.586,0.851,0.534,1.079,0.750,0.338,0.600,0.564,�k��,5.9,��
2022/11/17,20:00,0.585,0.852,0.534,1.079,0.748,0.338,0.597,0.563,�k��,5.7,��
2022/11/17,20:10,0.587,0.850,0.532,1.080,0.749,0.338,0.596,0.562,�k��,5.6,��
2022/11/17,20:20,0.588,0.851,0.534,1.080,0.751,0.337,0.598,0.562,�k��,4.8,��
2022/11/17,20:30,0.586,0.849,0.534,1.079,0.750,0.338,0.599,0.564,�k��,5.5,��
2022/11/17,20:40,0.586,0.851,0.535,1.078,0.748,0.337,0.598,0.564,�k�k��,5.6,��
2022/11/17,20:50,0.585,0.851,0.533,1.079,0.750,0.338,0.600,0.563,�k�k��,5.5,��
2022/11/17,21:00,0.586,0.851,0.534,1.079,0.749,0.337,0.597,0.563,�k�k��,5.8,��
2022/11/17,21:10,0.585,0.851,0.533,1.079,0.750,0.339,0.597,0.564,�k�k��,4.9,��
2022/11/17,21:20,0.586,0.848,0.535,1.081,0.748,0.338,0.598,0.562,�k�k��,4.7,��
2022/11/17,21:30,0.587,0.851,0.533,1.080,0.749,0.338,0.598,0.563,�k��,4.6,��
2022/11/17,21:40,0.586,0.850,0.532,1.080,0.750,0.338,0.598,0.562,�k��,4.6,��
2022/11/17,21:50,0.587,0.850,0.534,1.081,0.751,0.337,0.598,0.563,�k��,4.6,��
2022/11/17,22:00,0.584,0.851,0.533,1.080,0.749,0.336,0.598,0.562,�k��,5.1,��
2022/11/17,22:10,0.584,0.851,0.533,1.079,0.749,0.337,0.598,0.562,�k��,5.0,��
2022/11/17,22:20,0.586,0.850,0.533,1.080,0.749,0.337,0.597,0.562,�k��,4.4,��
2022/11/17,22:30,0.585,0.851,0.532,1.079,0.751,0.337,0.598,0.564,�k��,3.9,��
2022/11/17,22:40,0.586,0.849,0.533,1.077,0.751,0.336,0.598,0.563,�k��,4.2,��
2022/11/17,22:50,0.585,0.851,0.533,1.079,0.751,0.336,0.598,0.562,�k��,4.4,��
2022/11/17,23:00,0.586,0.851,0.533,1.080,0.751,0.337,0.598,0.562,�k�k��,5.0,��
2022/11/17,23:10,0.585,0.849,0.533,1.078,0.749,0.337,0.598,0.564,�k��,5.4,��
2022/11/17,23:20,0.587,0.849,0.532,1.080,0.751,0.338,0.598,0.564,�k��,5.1,��
2022/11/17,23:30,0.585,0.851,0.533,1.081,0.751,0.338,0.598,0.564,�k�k��,3.5,��
2022/11/17,23:40,0.586,0.850,0.532,1.079,0.751,0.338,0.596,0.563,�k�k��,2.8,��
2022/11/17,23:50,0.585,0.849,0.533,1.080,0.749,0.338,0.597,0.563,�k��,3.3,��
